Location: Marcé
(47.5801°N, 0.3280°W)
Time: 22:08:11
(UTC+01:00)

Transit 2A - Pass Details

Date: 09 December 2021
Orbit: 591 x 967 km, 66.7° (Epoch: 23 January)

Event Time Altitude Azimuth Distance (km) Brightness Sun altitude
Rises 21:56:24 0° 150° (SSE) 3,322 - -47.0°
Reaches altitude 10° 22:00:23 10° 122° (ESE) 2,486 - -47.6°
Maximum altitude 22:02:35 12° 99° (E) 2,372 - -48.0°
Drops below altitude 10° 22:04:51 10° 77° (ENE) 2,580 - -48.3°
Sets 22:09:08 0° 50° (NE) 3,596 - -49.0°
